Regional Weather Roundup
Issued by NWS

Home | Current Version | Previous Version | Text Only | Print | Product List | Glossary Off
Versions: 1 2 3 4 5 6 7 8 9 10 11 12 13 14 15 16 17 18 19 20 21 22 23 24 25 26 27 28 29 30 31 32 33 34 35 36 37 38 39 40 41 42 43 44 45 46 47 48 49 50

514
ASUS43 KMPX 241801
RWRMN
WEATHER ROUNDUP FOR MINNESOTA
NATIONAL WEATHER SERVICE TWIN CITIES/CHANHASSEN MN
100 PM CDT TUE MAY 24 2016


NOTE: "FAIR" INDICATES FEW OR NO CLOUDS BELOW 12,000 FEET WITH NO
SIGNIFICANT WEATHER AND/OR OBSTRUCTIONS TO VISIBILITY. N/A MEANS
CURRENT SKY AND/OR WEATHER CONDITIONS ARE NOT AVAILABLE.

MNZ060>063-068>070-241900-
   Twin Cities Metro

CITY           SKY/WX    TMP DP  RH WIND       PRES   REMARKS
TWIN CITIES    CLOUDY    80  59  48 CALM      29.89R
6HR MIN TEMP:  66; 6HR MAX TEMP:  80;

ST PAUL        CLOUDY    79  61  53 VRB3      29.89R
CRYSTAL        CLOUDY    77  60  55 S7        29.88S
EDEN PRAIRIE   CLOUDY    79  60  52 W6        29.88S
6HR MIN TEMP:  65; 6HR MAX TEMP:  80;

SOUTH ST PAUL  CLOUDY    78  58  50 W3        29.89R
LAKE ELMO      FAIR      77  63  61 W3        29.90S
$$
MNZ001>005-007-008-013>017-022>024-027-028-241900-
   Northwest Minnesota

CITY           SKY/WX    TMP DP  RH WIND       PRES   REMARKS
BEMIDJI        SUNNY     75  48  38 SW9       29.87S
HALLOCK        SUNNY     72  50  46 CALM      29.86S
ROSEAU         SUNNY     72  52  49 N5        29.87R
WARROAD        SUNNY     70  54  56 E7        29.87R
THIEF RVR FALL SUNNY     72  52  49 S9        29.88R
CROOKSTON      SUNNY     72  52  49 W8        29.88R
FOSSTON          N/A     72  55  56 SW9       29.89R
DETROIT LAKES  SUNNY     73  52  46 SE9       29.89S
MOORHEAD       SUNNY     79  45  29 CALM      29.86S
PARK RAPIDS    SUNNY     75  49  39 VRB6      29.88S
MAHNOMEN       FAIR      73  53  49 S5        29.87S
$$
MNZ006-009>011-018-025>026-241900-
   North Central Minnesota

CITY           SKY/WX    TMP DP  RH WIND       PRES   REMARKS
BAUDETTE       SUNNY     74  47  38 VRB7      29.85S
FLAG ISLAND    CLOUDY    63  52  67 NW9       29.85S
INTL FALLS     SUNNY     77  48  35 W12       29.86R
6HR MIN TEMP:  55; 6HR MAX TEMP:  77;

WASKISH        SUNNY     73  48  40 W9        29.86R
BIG FORK       SUNNY     77  52  41 SW7       29.88S
LONGVILLE      SUNNY     73  52  46 CALM      29.89F
CRANE LAKE     MOSUNNY   72  57  60 SW8       29.89R
ORR            SUNNY     73  46  38 CALM      29.85F
COOK           MOSUNNY   72  54  53 CALM      29.89S
WALKER         FAIR      70  52  53 SE8       29.89R
$$
MNZ012-019>021-037-241900-
   Northeast Minnesota

CITY           SKY/WX    TMP DP  RH WIND       PRES   REMARKS
DULUTH         MOSUNNY   70  58  65 VRB6      29.90R
6HR MIN TEMP:  59; 6HR MAX TEMP:  70; 6HR PCP:  0.12;

ELY            SUNNY     72  52  49 CALM      29.89S
HIBBING        MOSUNNY   73  49  42 VRB3      29.88R
EVELETH        MOSUNNY   72  50  46 NW5       29.89S
DULUTH HARBOR  SUNNY     63  59  88 N5        29.89R
TWO HARBORS      N/A     73  61  64 CALM      29.88R
SILVER BAY     SUNNY     72  54  53 SE3       29.88R
GRAND MARAIS     N/A     49  48  97 CALM      29.90R
G MARAIS ARPRT SUNNY     68  52  56 SE6       29.92R
$$
MNZ029>031-032-039>041-046>048-054>057-064-241900-
   West Central Minnesota

CITY           SKY/WX    TMP DP  RH WIND       PRES   REMARKS
FERGUS FALLS   SUNNY     75  55  50 E3        29.83S
WHEATON        SUNNY     82  55  39 CALM      29.85F
MORRIS         SUNNY     81  57  44 S7        29.85S
ALEXANDRIA     MOSUNNY   77  58  51 VRB5      29.89S
ELBOW LAKE     FAIR      78  56  46 CALM      29.86F
WADENA         SUNNY     75  54  46 E8        29.88S
GLENWOOD       SUNNY     79  59  50 E9        29.88S
APPLETON       SUNNY     81  57  44 SW7       29.85R
BENSON         SUNNY     81  57  44 S7        29.85F
ORTONVILLE     SUNNY     79  57  47 CALM      29.85S
MADISON        SUNNY     81  57  44 S6        29.85S
WILLMAR        FAIR      79  59  50 CALM      29.88S
$$
MNZ033>034-036-042>043-049>051-058-059-241900-
   Central Minnesota

CITY           SKY/WX    TMP DP  RH WIND       PRES   REMARKS
ST CLOUD       SUNNY     77  62  59 VRB3      29.88S
6HR MIN TEMP:  61; 6HR MAX TEMP:  77;

SAUK CENTRE    CLOUDY    74  61  63 CALM      29.89S
PAYNESVILLE    SUNNY     75  63  66 SE7       29.89S
AITKIN         MOSUNNY   79  48  34 N8        29.88S
PINE RIVER     SUNNY     73  54  49 S3        29.93S
BRAINERD       SUNNY     74  53  48 MISG      29.90S
STAPLES        MOSUNNY   79  46  31 S6        29.88F
LONG PRAIRIE   FAIR      73  59  60 E6        29.89S
LITTLE FALLS   MOSUNNY   75  55  50 N3        29.89S
LITCHFIELD     SUNNY     75  66  73 CALM      29.89S
BUFFALO        PTSUNNY   73  62  70 SE3       29.90R
MAPLE LAKE     SUNNY     73  65  77 CALM      29.90R
HUTCHINSON     SUNNY     73  67  82 E6        29.90S
$$
MNZ037-044-045-052-053-241900-
   East Central Minnesota

CITY           SKY/WX    TMP DP  RH WIND       PRES   REMARKS
PRINCETON      SUNNY     79  63  57 W5        29.88S
MORA           MOSUNNY   73  55  53 NW5       29.90S
CAMBRIDGE        N/A     79  63  57 W7        29.87R
RUSH CITY      PTSUNNY   75  64  67 W5        29.89S
MOOSE LAKE     MOSUNNY   70  57  64 CALM      29.89R
HINCKLEY       FAIR      73  63  68 NW3       29.88S
CLOQUET        SUNNY     72  55  56 CALM      29.89S
MCGREGOR       SUNNY     73  54  49 CALM      29.89S
$$
MNZ071>073-080-081-089-090-097-098-241900-
   Southwest Minnesota

CITY           SKY/WX    TMP DP  RH WIND       PRES   REMARKS
MONTEVIDEO     SUNNY     82  61  47 CALM      29.87S
GRANITE FALLS  SUNNY     81  64  56 SE5       29.87S
CANBY          SUNNY     80  66  62 S7        29.87S
MARSHALL         N/A     79  62  56 SW9       29.86F
REDWOOD FALLS  SUNNY     77  64  64 SW5       29.87S
OLIVIA         SUNNY     73  63  68 SE9       29.87R
PIPESTONE      SUNNY     75  61  60 CALM      29.89R
WINDOM         PTSUNNY   77  66  69 CALM      29.90R
WORTHINGTON    SUNNY     73  66  78 VRB5      29.91R
JACKSON        SUNNY     73  61  64 W5        29.91S
TRACY          SUNNY     79  63  57 S8        29.87F
SLAYTON        SUNNY     76  59  54 S7        29.90S
$$
MNZ065>067-074>077-082>085-091>093-241900-
   South Central Minnesota

CITY           SKY/WX    TMP DP  RH WIND       PRES   REMARKS
MANKATO        CLOUDY    77  59  53 W3        29.90R
NEW ULM        MOSUNNY   77  61  57 W6        29.88S
ST JAMES       CLOUDY    72  61  68 S3        29.90S
FAIRMONT       MOSUNNY   75  59  57 CALM      29.90S
GLENCOE        SUNNY     77  68  73 E5        29.89S
FARIBAULT      MOSUNNY   79  59  50 W2        29.91R
OWATONNA       MOSUNNY   79  54  41 W5        29.90S
WASECA         CLOUDY    77  54  44 CALM      29.91S
ALBERT LEA     PTSUNNY   75  59  57 S5        29.92R
$$
MNZ078>079-086>088-094>096-241900-
   Southeast Minnesota

CITY           SKY/WX    TMP DP  RH WIND       PRES   REMARKS
ROCHESTER      CLOUDY    75  64  68 SW9       29.94R
6HR MIN TEMP:  64; 6HR MAX TEMP:  75; 6HR PCP: TRACE;

RED WING       CLOUDY    81  61  50 SW3       29.88S
STANTON        PTSUNNY   79  60  51 W7        29.89R
DODGE CENTER   PTSUNNY   79  55  44 SW9       29.93R
WINONA         PTSUNNY   77  59  53 SW7       29.92S
AUSTIN         CLOUDY    73  61  64 S9        29.93S
PRESTON        CLOUDY    74  59  58 SW7       29.95S
$$
ABBREVIATIONS USED IN REMARKS
   TC - TEMPERATURES IN CELSIUS
  WCI - WIND CHILL INDEX
   HX - HEAT INDEX
  VSB - VISIBILITY
$$




USA.gov is the U.S. government's official web portal to all federal, state and local government web resources and services.